Location: Rosenheim
(47.8408°N, 12.2113°E)
Time: 08:41:41
(UTC+01:00)

Envisat - Visible Passes

Search period start: 24 November 2017 00:00
Search period end: 04 December 2017 00:00
Orbit: 764 x 766 km, 98.2° (Epoch: 23 November)

Date Brightness Start Highest point End Pass type
(mag) Time Alt. Az. Time Alt. Az. Time Alt. Az.
24 Nov 5.2 18:24:46 11° NNE 18:24:46 11° NNE 18:24:57 10° NNE visible
24 Nov 5.7 20:04:59 10° NNW 20:04:59 10° NNW 20:05:04 10° NNW visible
25 Nov 5.4 19:27:55 12° N 19:27:55 12° N 19:28:16 10° N visible
26 Nov 5.3 18:50:50 11° N 18:50:50 11° N 18:51:08 10° N visible
28 Nov 5.4 19:16:53 11° N 19:16:53 11° N 19:17:03 10° N visible
29 Nov 5.3 18:39:47 10° N 18:39:47 10° N 18:39:49 10° N visible
01 Dec 5.4 19:05:48 10° N 19:05:48 10° N 19:05:50 10° N visible
